timestamp,surface_pressure_avg,surface_temp_avg,battery_voltage,lat,long
2019-09-06 00:00:00+00:00,228.8181,17.88,12.97,47.84626,-54.09684
2019-09-06 00:10:00+00:00,228.1081,17.88,12.89,47.84626,-54.09684
2019-09-06 00:20:00+00:00,228.7847,17.89,12.97,47.84626,-54.09684
2019-09-06 00:30:00+00:00,230.0564,17.88,12.97,47.84626,-54.09684
2019-09-06 00:40:00+00:00,229.9047,17.86,13.05,47.84626,-54.09684
2019-09-06 00:50:00+00:00,229.7631,17.86,13.05,47.84626,-54.09684
2019-09-06 01:00:00+00:00,230.0031,17.87,12.97,47.84626,-54.09684
2019-09-06 01:10:00+00:00,232.2448,17.87,12.89,47.84626,-54.09684
2019-09-06 01:20:00+00:00,237.5797,17.9,12.97,47.84626,-54.09684
2019-09-06 01:30:00+00:00,240.3681,18.05,12.97,47.84626,-54.09684
2019-09-06 01:40:00+00:00,242.6131,18.1,12.97,47.84626,-54.09684
2019-09-06 01:50:00+00:00,250.1214,18.1,12.97,47.84626,-54.09684
2019-09-06 02:00:00+00:00,258.8181,18.05,12.89,47.84626,-54.09684
2019-09-06 02:10:00+00:00,259.7881,18.09,12.81,47.84626,-54.09684
2019-09-06 02:20:00+00:00,262.6547,18.0,12.97,47.84626,-54.09684
2019-09-06 02:30:00+00:00,270.6198,17.8,12.97,47.84626,-54.09684
2019-09-06 02:40:00+00:00,278.3113,17.75,12.97,47.84626,-54.09684
2019-09-06 02:50:00+00:00,280.7897,17.76,12.97,47.84626,-54.09684
2019-09-06 03:00:00+00:00,286.248,17.7,12.89,47.84626,-54.09684
2019-09-06 03:10:00+00:00,293.3114,17.6,12.81,47.84626,-54.09684
2019-09-06 03:20:00+00:00,297.1147,17.6,12.89,47.84626,-54.09684
2019-09-06 03:30:00+00:00,299.4247,17.7,12.89,47.84626,-54.09684
2019-09-06 03:40:00+00:00,304.048,17.6,12.89,47.84626,-54.09684
2019-09-06 03:50:00+00:00,306.7047,17.6,12.97,47.84626,-54.09684
2019-09-06 04:00:00+00:00,304.6347,17.6,12.81,47.84626,-54.09684
2019-09-06 04:10:00+00:00,302.7681,17.67,12.81,47.84626,-54.09684
2019-09-06 04:20:00+00:00,303.8848,17.6,12.89,47.84626,-54.09684
2019-09-06 04:30:00+00:00,306.2014,17.6,12.89,47.84626,-54.09684
2019-09-06 04:40:00+00:00,306.363,17.59,12.89,47.84626,-54.09684
2019-09-06 04:50:00+00:00,307.7314,17.56,12.89,47.84626,-54.09684
2019-09-06 05:00:00+00:00,311.6347,17.56,12.81,47.84626,-54.09684
2019-09-06 05:10:00+00:00,315.3497,17.56,12.73,47.84626,-54.09684
2019-09-06 05:20:00+00:00,313.743,17.56,12.81,47.84626,-54.09684
2019-09-06 05:30:00+00:00,314.8397,17.53,12.81,47.84626,-54.09684
2019-09-06 05:40:00+00:00,316.048,17.51,12.89,47.84626,-54.09684
2019-09-06 05:50:00+00:00,315.1281,17.53,12.89,47.84626,-54.09684
2019-09-06 06:00:00+00:00,313.4996,17.55,12.81,47.84626,-54.09684
2019-09-06 06:10:00+00:00,315.8314,17.5,12.73,47.84626,-54.09684
2019-09-06 06:20:00+00:00,313.348,17.55,12.81,47.84626,-54.09684
2019-09-06 06:30:00+00:00,310.2412,17.59,12.81,47.84626,-54.09684
2019-09-06 06:40:00+00:00,308.7264,17.62,12.81,47.84626,-54.09684
2019-09-06 06:50:00+00:00,304.5314,17.6,12.81,47.84626,-54.09684
2019-09-06 07:00:00+00:00,300.2214,17.6,12.81,47.84626,-54.09684
2019-09-06 07:10:00+00:00,296.0914,17.65,12.73,47.84626,-54.09684
2019-09-06 07:20:00+00:00,285.6664,17.6,12.81,47.84626,-54.09684
2019-09-06 07:30:00+00:00,273.963,17.6,12.81,47.84626,-54.09684
2019-09-06 07:40:00+00:00,268.5464,17.59,12.81,47.84626,-54.09684
2019-09-06 07:50:00+00:00,262.3614,17.59,12.81,47.84626,-54.09684
2019-09-06 08:00:00+00:00,251.7581,17.6,12.73,47.84626,-54.09684
2019-09-06 08:10:00+00:00,244.1764,17.6,12.73,47.84626,-54.09684
2019-09-06 08:20:00+00:00,238.4348,17.68,12.81,47.84626,-54.09684
2019-09-06 08:30:00+00:00,230.2448,17.7,12.81,47.84626,-54.09684
2019-09-06 08:40:00+00:00,222.2731,17.79,12.81,47.84626,-54.09684
2019-09-06 08:50:00+00:00,218.8531,17.85,12.81,47.84626,-54.09684
2019-09-06 09:00:00+00:00,215.8981,17.95,12.73,47.84626,-54.09684
2019-09-06 09:10:00+00:00,209.4181,18.0,12.73,47.84626,-54.09684
2019-09-06 09:20:00+00:00,204.1498,18.07,12.81,47.84626,-54.09684
2019-09-06 09:30:00+00:00,203.8681,18.1,12.81,47.84626,-54.09684
2019-09-06 09:40:00+00:00,203.6614,18.1,12.97,47.84626,-54.09684
2019-09-06 09:50:00+00:00,200.1364,18.1,13.29,47.84626,-54.09684
2019-09-06 10:00:00+00:00,200.4597,18.08,13.44,47.84626,-54.09684
2019-09-06 10:10:00+00:00,204.0448,18.0,13.53,47.84626,-54.09684
2019-09-06 10:20:00+00:00,203.7431,18.0,13.84,47.84626,-54.09684
2019-09-06 10:30:00+00:00,204.4848,18.0,14.08,47.84626,-54.09684
2019-09-06 10:40:00+00:00,209.1748,17.9,14.8,47.84626,-54.09684
2019-09-06 10:50:00+00:00,213.2714,17.6,15.6,47.84626,-54.09684
2019-09-06 11:00:00+00:00,214.7798,17.65,15.2,47.84626,-54.09684
2019-09-06 11:10:00+00:00,219.1964,17.7,15.11,47.84626,-54.09684
2019-09-06 11:20:00+00:00,226.2431,17.6,16.15,47.84626,-54.09684
2019-09-06 11:30:00+00:00,232.3231,17.52,16.07,47.84626,-54.09684
2019-09-06 11:40:00+00:00,235.2547,17.5,16.23,47.84626,-54.09684
2019-09-06 11:50:00+00:00,237.7947,17.5,16.07,47.84626,-54.09684
2019-09-06 12:00:00+00:00,242.3247,17.48,14.96,47.84626,-54.09684
2019-09-06 12:10:00+00:00,245.7748,17.49,14.96,47.84626,-54.09684
2019-09-06 12:20:00+00:00,246.8615,17.4,15.27,47.84626,-54.09684
2019-09-06 12:30:00+00:00,246.8414,17.43,15.11,47.84626,-54.09684
2019-09-06 12:40:00+00:00,250.1348,17.43,15.04,47.84626,-54.09684
2019-09-06 12:50:00+00:00,252.7714,17.4,15.04,47.84626,-54.09684
2019-09-06 13:00:00+00:00,255.7347,17.4,14.8,47.84626,-54.09684
2019-09-06 13:10:00+00:00,258.8781,17.4,14.72,47.84626,-54.09684
2019-09-06 13:20:00+00:00,261.733,17.4,14.96,47.84626,-54.09684
2019-09-06 13:30:00+00:00,263.6564,17.4,14.88,47.84626,-54.09684
2019-09-06 13:40:00+00:00,267.5964,17.4,14.8,47.84626,-54.09684
2019-09-06 13:50:00+00:00,268.728,17.4,14.8,47.84626,-54.09684
2019-09-06 14:00:00+00:00,271.1864,17.4,14.64,47.84626,-54.09684
2019-09-06 14:10:00+00:00,276.8815,17.4,14.56,47.84626,-54.09684
2019-09-06 14:20:00+00:00,280.0131,17.4,14.72,47.84626,-54.09684
2019-09-06 14:30:00+00:00,283.2113,17.4,14.64,47.84626,-54.09684
2019-09-06 14:40:00+00:00,290.9114,17.42,14.72,47.84626,-54.09684
2019-09-06 14:50:00+00:00,298.6213,17.47,14.64,47.84626,-54.09684
2019-09-06 15:00:00+00:00,304.1096,17.49,14.4,47.84626,-54.09684
2019-09-06 15:10:00+00:00,313.0046,17.48,14.48,47.84626,-54.09684
2019-09-06 15:20:00+00:00,319.8746,17.47,14.56,47.84626,-54.09684
2019-09-06 15:30:00+00:00,323.178,17.46,14.4,47.84626,-54.09684
2019-09-06 15:40:00+00:00,328.4547,17.48,14.56,47.84626,-54.09684
2019-09-06 15:50:00+00:00,332.9979,17.49,14.48,47.84626,-54.09684
2019-09-06 16:00:00+00:00,331.7429,17.49,14.32,47.84626,-54.09684
2019-09-06 16:10:00+00:00,333.4045,17.5,14.4,47.84626,-54.09684
2019-09-06 16:20:00+00:00,339.9997,17.5,14.48,47.84626,-54.09684
2019-09-06 16:30:00+00:00,341.2446,17.5,14.48,47.84626,-54.09684
2019-09-06 16:40:00+00:00,340.4646,17.5,14.48,47.84626,-54.09684
2019-09-06 16:50:00+00:00,341.9563,17.58,14.48,47.84626,-54.09684
2019-09-06 17:00:00+00:00,343.423,17.6,14.32,47.84626,-54.09684
2019-09-06 17:10:00+00:00,342.8196,17.5,14.32,47.84626,-54.09684
2019-09-06 17:20:00+00:00,341.6246,17.5,14.4,47.84626,-54.09684
2019-09-06 17:30:00+00:00,343.4813,17.5,14.32,47.84626,-54.09684
2019-09-06 17:40:00+00:00,343.2279,17.5,14.32,47.84626,-54.09684
2019-09-06 17:50:00+00:00,342.5546,17.54,14.32,47.84626,-54.09684
2019-09-06 18:00:00+00:00,345.2863,17.63,14.24,47.84626,-54.09684
2019-09-06 18:10:00+00:00,345.7013,17.68,14.08,47.84626,-54.09684
2019-09-06 18:20:00+00:00,343.4479,17.73,14.16,47.84626,-54.09684
2019-09-06 18:30:00+00:00,343.1296,17.79,14.16,47.84626,-54.09684
2019-09-06 18:40:00+00:00,343.943,17.7,14.16,47.84626,-54.09684
2019-09-06 18:50:00+00:00,340.3929,17.8,14.08,47.84626,-54.09684
2019-09-06 19:00:00+00:00,338.7963,17.89,14.0,47.84626,-54.09684
2019-09-06 19:10:00+00:00,338.2379,17.9,13.84,47.84626,-54.09684
2019-09-06 19:20:00+00:00,331.8846,17.9,13.92,47.84626,-54.09684
2019-09-06 19:30:00+00:00,322.028,17.91,13.92,47.84626,-54.09684
2019-09-06 19:40:00+00:00,318.6396,17.9,14.0,47.84626,-54.09684
2019-09-06 19:50:00+00:00,314.858,17.8,14.0,47.84626,-54.09684
2019-09-06 20:00:00+00:00,304.188,17.7,13.84,47.84626,-54.09684
2019-09-06 20:10:00+00:00,295.8596,17.7,13.76,47.84626,-54.09684
2019-09-06 20:20:00+00:00,291.738,17.7,13.76,47.84626,-54.09684
2019-09-06 20:30:00+00:00,284.6914,17.69,13.76,47.84626,-54.09684
2019-09-06 20:40:00+00:00,274.1064,17.7,13.76,47.84626,-54.09684
2019-09-06 20:50:00+00:00,267.3997,17.71,13.68,47.84626,-54.09684
2019-09-06 21:00:00+00:00,263.7014,17.7,13.68,47.84626,-54.09684
2019-09-06 21:10:00+00:00,258.4581,17.72,13.53,47.84626,-54.09684
2019-09-06 21:20:00+00:00,251.8881,17.77,13.53,47.84626,-54.09684
2019-09-06 21:30:00+00:00,246.6681,17.79,13.44,47.84626,-54.09684
2019-09-06 21:40:00+00:00,243.9814,17.79,13.44,47.84626,-54.09684
2019-09-06 21:50:00+00:00,240.5015,17.78,13.44,47.84626,-54.09684
2019-09-06 22:00:00+00:00,237.2248,17.77,13.29,47.84626,-54.09684
2019-09-06 22:10:00+00:00,234.0414,17.77,13.21,47.84626,-54.09684
2019-09-06 22:20:00+00:00,229.9265,17.78,13.13,47.84626,-54.09684
2019-09-06 22:30:00+00:00,228.5598,17.79,13.13,47.84626,-54.09684
2019-09-06 22:40:00+00:00,230.6998,17.79,13.13,47.84626,-54.09684
2019-09-06 22:50:00+00:00,230.3464,17.8,13.05,47.84626,-54.09684
2019-09-06 23:00:00+00:00,228.4715,17.78,13.05,47.84626,-54.09684
2019-09-06 23:10:00+00:00,231.5231,17.73,12.89,47.84626,-54.09684
2019-09-06 23:20:00+00:00,236.4998,17.7,12.97,47.84626,-54.09684
2019-09-06 23:30:00+00:00,235.9114,17.7,12.97,47.84626,-54.09684
2019-09-06 23:40:00+00:00,234.0031,17.72,13.05,47.84626,-54.09684
2019-09-06 23:50:00+00:00,239.1631,17.7,13.05,47.84626,-54.09684
